Location: 10033 Water Well
(34.0865°N, 106.8959°W)
Time: 18:14:42
(UTC+00:00)

USA 238 - Visible Passes

Search period start: 11 April 2026 00:00
Search period end: 21 April 2026 00:00
Orbit: 883 x 1328 km, 63.4° (Epoch: 10 January)

Date Brightness Start Highest point End Pass type
(mag) Time Alt. Az. Time Alt. Az. Time Alt. Az.
11 Apr 5.7 03:31:31 10° N 03:35:54 16° NE 03:38:11 14° ENE visible
11 Apr 4.8 05:20:31 10° NNW 05:25:36 45° N 05:25:36 45° N visible
11 Apr 6.3 07:12:41 10° WNW 07:13:02 11° WNW 07:13:02 11° WNW visible
12 Apr 6.0 02:48:37 10° NNE 02:50:04 11° NNE 02:51:32 10° NE visible
12 Apr 4.6 04:35:46 10° NNW 04:42:08 43° NE 04:42:08 43° NE visible
12 Apr 5.8 06:26:50 10° NW 06:29:34 22° WNW 06:29:34 22° WNW visible
13 Apr 5.0 03:51:11 10° N 03:57:41 30° NE 03:58:43 29° ENE visible
13 Apr 5.0 05:41:27 10° NW 05:46:09 40° NW 05:46:09 40° NW visible
14 Apr 5.5 03:06:51 10° N 03:12:11 20° NE 03:15:19 16° ENE visible
14 Apr 4.2 04:56:22 10° NNW 05:02:45 66° NNW 05:02:45 66° NNW visible
14 Apr 6.3 06:49:31 10° WNW 06:50:12 12° WNW 06:50:12 12° WNW visible
15 Apr 5.8 02:22:59 10° N 02:26:28 13° NE 02:30:04 10° ENE visible
15 Apr 4.2 04:11:30 10° NNW 04:19:01 57° NE 04:19:25 56° ENE visible
15 Apr 5.6 06:03:08 10° NW 06:06:51 24° WNW 06:06:51 24° WNW visible
16 Apr 4.7 03:26:49 10° NNW 03:33:47 38° NE 03:36:07 32° E visible
16 Apr 4.8 05:17:32 10° NW 05:23:33 44° W 05:23:33 44° W visible
17 Apr 5.2 02:42:20 10° N 02:48:24 25° NE 02:52:52 16° E visible
17 Apr 4.0 04:32:17 10° NW 04:40:00 76° WSW 04:40:19 75° SW visible
17 Apr 6.3 06:27:08 10° W 06:27:45 11° W 06:27:45 11° W visible
18 Apr 5.6 01:58:08 10° N 02:02:49 17° NE 02:07:40 10° ENE visible
18 Apr 4.0 03:47:18 10° NNW 03:54:59 72° ENE 03:57:07 52° SE visible
18 Apr 5.7 05:39:41 10° WNW 05:44:34 22° W 05:44:34 22° W visible
19 Apr 4.4 03:02:31 10° NNW 03:09:50 48° NE 03:13:59 27° ESE visible
19 Apr 5.0 04:53:43 10° NW 05:00:43 37° WSW 05:01:26 36° WSW visible
20 Apr 4.9 02:17:54 10° NNW 02:24:32 32° NE 02:30:54 12° ESE visible
20 Apr 4.4 04:08:17 10° NW 04:15:52 59° WSW 04:18:22 43° SSW visible
